CZ-6A DEB, 60673

Orbit data source: Space-Track

CZ-6A DEB, 60673 is space debris in LEO originally from a launch on Tue, 06 Aug 2024 UTC launched from the Taiyaun Space Center, China (TSC). Debris objects in space refer to the collection of defunct objects orbiting the Earth. Examples of debris include non-operational satellites, rocket bodies, and fragments generated from explosions, collisions, or faulty payload assembly.

Loading next visibility...
Identifier
60673, 2024-140CA
Orbit
LEO
Country
Flag of CNCN / PRC
Related business
Manufacturer
SAST
Mission
Spacecraft
Bus & Motor
Unknown
Mass
Unknown
Launch date (UTC)
2024-08-06 (2 years ago)
Launch vehicle
Unknown
Launch site
Taiyaun Space Center, China (TSC)
Object type
Payload
Rocket body
Debris
Shape & HBR
Unknown shape, 0.6 m
Radar Cross Section
Small (<0.1 m²)

Expand to show TLE details & history
Last TLE update: 9 hours ago

TLE from 9 hours ago
0 CZ-6A DEB
1 60673U 24140CA  26118.77072659  .00007469  00000-0  73913-3 0  9996
2 60673  89.2755 296.7881 0213959  46.9971 314.8960 14.76107541 92172
Epoch: 2026-04-28T18:29Z
TLE epoch observation values (Epoch: 2026-04-28T18:29:50.777Z)
Latitude
0.00005°
Longitude
162.58526°
Altitude
540.388 km
Speed
7.648 km/s
True Right ascension
19h 47m 09s
True Declination
0° 00' 00"
Sunlit
Object was in daylight at epoch
Visualization orbit readout
Latitude
Unknown
Longitude
Unknown
Altitude
Unknown
Speed
Unknown
Apparent Right ascension
Unknown
Apparent Declination
Unknown
Sunlit
N/A
Visualization observer readout
Local Sidereal Time
10:59:23
Azimuth
Unknown
Elevation
Unknown
Doppler factor
Unknown
Orbital elements
Apogee altitude
788.633 km
Perigee altitude
488.378 km
Semi-major axis
7,016.642 km
Eccentricity
0.0214
Inclination
89.2755°
RAAN
296.7881°
Arg. of periapsis
46.9971°
True anomaly
313.12607°
Mean anomaly
314.896°
Eccentric anomaly
314.01438°
Mean motion
3.69274 °/min
Orbital period
97.49 mins
BSTAR
0.00073913
Loading maneuver chart data...
Computing Atmospheric mass density...
Loading historical data...
Loading historical data...
Loading historical data...
Loading historical data...
Loading historical data...
Loading historical data...
Loading historical data...

Documentation

Showing up to 5 results
|